Kezdőlap
METAR-TAF:

METAR-TAF

Repülőterek :

Carroll, Iowa, Amerikai Egyesült Államok

földrajzi szélesség: 42-03N, földrajzi hosszúság: 094-47W, magasság: 375 m

Jelenlegi meteorológiai megfigyelések

A jelentés 18 perccel ezelõtt készült, 10:15 UTC
Észak-északkeleti szél 6 kt
Hőmérséklet 14°C
Páratartalom 51%
Légköri nyomás 1015 hPa
Látótávolság: 16.1 km
Borult 10000 lábon

METAR: KCIN 171015Z AUTO 03006KT 10SM OVC100 14/04 A2997 RMK AO2

Idő: 05:33 (10:33 UTC)


TAF: hiányzik

Meteorológiai megfigyelések és előrejelzések több, mint 4000 repülőtéren (METAR és TAF jelentéseket).

A térképen piros és sárga pontok jelzik az elérhető meteorológiai állomásokat.

Mozgassa az egeret a pont fölött, hogy megjelenjen az állomás neve.

Azután kattintson az időjárási megfigyelések és előrejelzések megtekintéséhez.

A térkép megváltoztatása: kattintson a fekete keresztel jelölt zöld gombra ráközelítéshez, a vonallal jelölt zöld gombra távolításhoz, vagy a zöld nyilakra a szomszédos térképek eléréséhez.


METAR-TAF: